TimeEDT,TemperatureF,Dew PointF,Humidity,Sea Level PressureIn,VisibilityMPH,Wind Direction,Wind SpeedMPH,Gust SpeedMPH,PrecipitationIn,Events,Conditions,WindDirDegrees,DateUTC
12:56 AM,60.1,55.9,86,29.67,10.0,South,3.5,-,N/A,,Clear,190,2013-11-02 04:56:00
1:56 AM,59.0,55.9,90,29.67,10.0,SSW,4.6,-,N/A,,Clear,210,2013-11-02 05:56:00
2:56 AM,57.9,55.9,93,29.66,10.0,Calm,Calm,-,N/A,,Mostly Cloudy,0,2013-11-02 06:56:00
3:56 AM,59.0,57.0,93,29.67,10.0,Calm,Calm,-,N/A,,Overcast,0,2013-11-02 07:56:00
4:56 AM,57.9,55.9,93,29.66,8.0,Calm,Calm,-,N/A,,Overcast,0,2013-11-02 08:56:00
5:56 AM,57.0,55.0,93,29.67,10.0,NE,3.5,-,0.00,,Overcast,40,2013-11-02 09:56:00
6:56 AM,57.0,54.0,89,29.68,8.0,Calm,Calm,-,0.00,Rain,Light Rain,0,2013-11-02 10:56:00
7:56 AM,55.9,54.0,93,29.69,4.0,Calm,Calm,-,0.05,Rain,Light Rain,0,2013-11-02 11:56:00
8:56 AM,55.9,52.0,87,29.72,8.0,Calm,Calm,-,0.01,Rain,Light Rain,0,2013-11-02 12:56:00
9:56 AM,55.0,51.1,86,29.67,10.0,Calm,Calm,-,0.00,,Overcast,0,2013-11-02 13:56:00
10:56 AM,57.0,52.0,83,29.65,10.0,Calm,Calm,-,N/A,,Overcast,0,2013-11-02 14:56:00
11:56 AM,59.0,51.1,75,29.63,10.0,SE,3.5,-,N/A,,Partly Cloudy,140,2013-11-02 15:56:00
12:56 PM,60.1,51.1,72,29.61,10.0,Variable,3.5,-,N/A,,Clear,0,2013-11-02 16:56:00
1:56 PM,60.1,51.1,72,29.61,10.0,Calm,Calm,-,N/A,,Clear,0,2013-11-02 17:56:00
2:56 PM,60.1,50.0,69,29.60,10.0,South,3.5,-,N/A,,Clear,180,2013-11-02 18:56:00
3:56 PM,60.1,50.0,69,29.61,10.0,Calm,Calm,-,N/A,,Clear,0,2013-11-02 19:56:00
4:56 PM,59.0,51.1,75,29.62,10.0,Calm,Calm,-,N/A,,Clear,0,2013-11-02 20:56:00
5:56 PM,55.9,52.0,87,29.62,10.0,Calm,Calm,-,N/A,,Clear,0,2013-11-02 21:56:00
6:56 PM,54.0,51.1,90,29.65,10.0,Calm,Calm,-,N/A,,Mostly Cloudy,0,2013-11-02 22:56:00
7:56 PM,53.1,50.0,89,29.68,10.0,Calm,Calm,-,N/A,,Clear,0,2013-11-02 23:56:00
8:56 PM,53.1,51.1,93,29.67,10.0,Calm,Calm,-,N/A,,Clear,0,2013-11-03 00:56:00
9:56 PM,52.0,50.0,93,29.70,10.0,Calm,Calm,-,N/A,,Clear,0,2013-11-03 01:56:00
10:56 PM,52.0,50.0,93,29.70,10.0,Calm,Calm,-,N/A,,Clear,0,2013-11-03 02:56:00
11:56 PM,57.0,48.9,74,29.70,10.0,NNW,11.5,16.1,N/A,,Mostly Cloudy,340,2013-11-03 03:56:00